Content
SEND FEEDBACK

Daily
Averages
Monthly
Summary
United States of America

RIEPETOWN, NEVADA


Home > North America > United States > Nevada
Elevation: 7030 feet     Latitude: 39 16N     Longitude: 114 59W

WEATHER
 
SELECT A DAY
Number of Records: 190,225;   Date Range: 1/1/95 - 8/12/14
 
SHARE

PRINT THIS DATA

[ ← Previous Day ]
WEATHER ALMANAC - JANUARY 3, 2013
[ Next Day → ]
[ °C ]   °F
Weather ElementAverageHighLow
Temperature3.9 °F28 °F (2:53 pm)-11.9 °F (4:53 am)
Dewpoint-5.1 °F7 °F (11:53 am)-16.1 °F (4:53 am)
Humidity69 %83 % (1:53 am)36 % (2:53 pm)
Barometer30.58 in30.69 in (7:53 am)30.28 in (3:53 am)
Wind Speed8.4 mph16.1 mph (5:53 am)
Weather ElementAverage
Visibility10 mi
Wind DirectionSSE (146.7 °)

Weather ElementTotal
Precipitation---
Heating Degree Days57 (Base 65)
Averaged from 21 records on January 3, 2013
WEATHER CONDITIONS BREAKOUT
WIND DIRECTION BREAKOUT
WEATHER BY HOUR - JANUARY 3, 2013
[ °C ]   °F
Local TimeTemperatureDewpointHumidityBarometerVisibilityWind DirectionWind SpeedGust SpeedPrecipitationEventsConditions
1:53 AM-9.0 °F-13.0 °F83 %30.57 in10.0 miSouth (180°)11.5 mphClear
2:53 AM-11.0 °F-15.0 °F83 %30.57 in10.0 miSouth (180°)11.5 mphClear
3:53 AM-9.4 °F-14.8 °F77 %30.28 in10.0 miSouth (170°)11.5 mphClear
4:53 AM-11.9 °F-16.1 °F82 %30.61 in10.0 miSouth (170°)8.1 mphClear
5:53 AM-9.9 °F-14.1 °F82 %30.67 in10.0 miSSE (160°)16.1 mphClear
7:53 AM-9.0 °F-14.1 °F79 %30.69 in10.0 miSouth (170°)9.2 mphClear
9:53 AM5.0 °F-2.0 °F73 %30.66 in10.0 miSouth (170°)10.4 mphClear
10:53 AM12.9 °F3.9 °F67 %30.59 in10.0 miSouth (180°)6.9 mphClear
11:53 AM19.9 °F7.0 °F57 %30.53 in10.0 miSouth (180°)5.8 mphClear
12:53 PM23.0 °F6.1 °F48 %30.51 in10.0 miSSE (150°)3.5 mphClear
1:53 PM27.0 °F3.9 °F37 %30.50 in10.0 miCalmClear
2:53 PM28.0 °F3.9 °F36 %30.49 in10.0 miCalmClear
3:53 PM25.0 °F7.0 °F46 %30.51 in10.0 miCalmClear
4:53 PM10.0 °F3.0 °F73 %30.60 in10.0 miSouth (170°)9.2 mphClear
5:53 PM3.0 °F-2.9 °F76 %30.65 in10.0 miSouth (180°)9.2 mphClear
6:53 PM3.0 °F-2.9 °F76 %30.64 in10.0 miSouth (170°)10.4 mphClear
7:53 PM-0.9 °F-7.1 °F75 %30.67 in10.0 miSouth (170°)6.9 mphClear
8:53 PM-2.9 °F-9.0 °F75 %30.65 in10.0 miSouth (180°)9.2 mphClear
9:53 PM-2.0 °F-9.0 °F72 %30.62 in10.0 miSouth (170°)10.4 mphClear
10:53 PM-4.0 °F-9.9 °F76 %30.59 in10.0 miSSE (160°)15.0 mphClear
11:53 PM-5.1 °F-11.0 °F76 %30.55 in10.0 miSouth (170°)11.5 mphClear
Hourly data recorded from KELY, located miles away from Riepetown, Nevada







STORIES FROM OUR PARTNERS